Year,Month,Day,Hour,Minute,Value (Times are PST for temperature in C)
2019,03,27,00,00,5.30
2019,03,27,00,01,5.30
2019,03,27,00,02,5.30
2019,03,27,00,03,5.30
2019,03,27,00,04,5.30
2019,03,27,00,05,5.30
2019,03,27,00,06,5.30
2019,03,27,00,07,5.30
2019,03,27,00,08,5.30
2019,03,27,00,09,5.30
2019,03,27,00,10,5.30
2019,03,27,00,11,5.30
2019,03,27,00,12,5.30
2019,03,27,00,13,5.30
2019,03,27,00,14,5.30
2019,03,27,00,15,5.30
2019,03,27,00,16,5.40
2019,03,27,00,17,5.40
2019,03,27,00,18,5.40
2019,03,27,00,19,5.30
2019,03,27,00,20,5.30
2019,03,27,00,21,5.30
2019,03,27,00,22,5.20
2019,03,27,00,23,5.20
2019,03,27,00,24,5.10
2019,03,27,00,25,5.10
2019,03,27,00,26,5.10
2019,03,27,00,27,5.10
2019,03,27,00,28,5.10
2019,03,27,00,29,5.10
2019,03,27,00,30,5.10
2019,03,27,00,31,5.10
2019,03,27,00,32,5.20
2019,03,27,00,33,5.20
2019,03,27,00,34,5.20
2019,03,27,00,35,5.30
2019,03,27,00,36,5.30
2019,03,27,00,37,5.30
2019,03,27,00,38,5.30
2019,03,27,00,39,5.20
2019,03,27,00,40,5.20
2019,03,27,00,41,5.20
2019,03,27,00,42,5.20
2019,03,27,00,43,5.20
2019,03,27,00,44,5.20
2019,03,27,00,45,5.20
2019,03,27,00,46,5.30
2019,03,27,00,47,5.30
2019,03,27,00,48,5.30
2019,03,27,00,49,5.30
2019,03,27,00,50,5.30
2019,03,27,00,51,5.30
2019,03,27,00,52,5.30
2019,03,27,00,53,5.30
2019,03,27,00,54,5.20
2019,03,27,00,55,5.20
2019,03,27,00,56,5.20
2019,03,27,00,57,5.20
2019,03,27,00,58,5.20
2019,03,27,00,59,5.20
2019,03,27,01,00,5.20
2019,03,27,01,01,5.20
2019,03,27,01,02,5.20
2019,03,27,01,03,5.10
2019,03,27,01,04,5.10
2019,03,27,01,05,5.10
2019,03,27,01,06,5.20
2019,03,27,01,07,5.20
2019,03,27,01,08,5.20
2019,03,27,01,09,5.20
2019,03,27,01,10,5.20
2019,03,27,01,11,5.20
2019,03,27,01,12,5.20
2019,03,27,01,13,5.20
2019,03,27,01,14,5.20
2019,03,27,01,15,5.20
2019,03,27,01,16,5.20
2019,03,27,01,17,5.20
2019,03,27,01,18,5.20
2019,03,27,01,19,5.20
2019,03,27,01,20,5.20
2019,03,27,01,21,5.30
2019,03,27,01,22,5.20
2019,03,27,01,23,5.20
2019,03,27,01,24,5.20
2019,03,27,01,25,5.20
2019,03,27,01,26,5.20
2019,03,27,01,27,5.20
2019,03,27,01,28,5.20
2019,03,27,01,29,5.20
2019,03,27,01,30,5.20
2019,03,27,01,31,5.10
2019,03,27,01,32,5.10
2019,03,27,01,33,5.10
2019,03,27,01,34,5.10
2019,03,27,01,35,5.10
2019,03,27,01,36,5.10
2019,03,27,01,37,5.10
2019,03,27,01,38,5.10
2019,03,27,01,39,5.10
2019,03,27,01,40,5.00
2019,03,27,01,41,5.00
2019,03,27,01,42,5.00
2019,03,27,01,43,4.90
2019,03,27,01,44,4.80
2019,03,27,01,45,4.80
2019,03,27,01,46,4.70
2019,03,27,01,47,4.70
2019,03,27,01,48,4.60
2019,03,27,01,49,4.60
2019,03,27,01,50,4.50
2019,03,27,01,51,4.50
2019,03,27,01,52,4.40
2019,03,27,01,53,4.40
2019,03,27,01,54,4.30
2019,03,27,01,55,4.30
2019,03,27,01,56,4.30
2019,03,27,01,57,4.20
2019,03,27,01,58,4.20
2019,03,27,01,59,4.20
2019,03,27,02,00,4.20
2019,03,27,02,01,4.20
2019,03,27,02,02,4.20
2019,03,27,02,03,4.20
2019,03,27,02,04,4.20
2019,03,27,02,05,4.30
2019,03,27,02,06,4.20
2019,03,27,02,07,4.20
2019,03,27,02,08,4.20
2019,03,27,02,09,4.20
2019,03,27,02,10,4.20
2019,03,27,02,11,4.20
2019,03,27,02,12,4.20
2019,03,27,02,13,4.10
2019,03,27,02,14,4.10
2019,03,27,02,15,4.10
2019,03,27,02,16,4.10
2019,03,27,02,17,4.10
2019,03,27,02,18,4.00
2019,03,27,02,19,4.00
2019,03,27,02,20,3.90
2019,03,27,02,21,3.90
2019,03,27,02,22,3.90
2019,03,27,02,23,3.90
2019,03,27,02,24,3.80
2019,03,27,02,25,3.80
2019,03,27,02,26,3.80
2019,03,27,02,27,3.80
2019,03,27,02,28,3.80
2019,03,27,02,29,3.80
2019,03,27,02,30,3.80
2019,03,27,02,31,3.80
2019,03,27,02,32,3.80
2019,03,27,02,33,3.80
2019,03,27,02,34,3.90
2019,03,27,02,35,3.90
2019,03,27,02,36,3.90
2019,03,27,02,37,4.00
2019,03,27,02,38,4.00
2019,03,27,02,39,4.00
2019,03,27,02,40,4.10
2019,03,27,02,41,4.20
2019,03,27,02,42,4.20
2019,03,27,02,43,4.20
2019,03,27,02,44,4.20
2019,03,27,02,45,4.20
2019,03,27,02,46,4.30
2019,03,27,02,47,4.30
2019,03,27,02,48,4.30
2019,03,27,02,49,4.30
2019,03,27,02,50,4.30
2019,03,27,02,51,4.30
2019,03,27,02,52,4.40
2019,03,27,02,53,4.40
2019,03,27,02,54,4.40
2019,03,27,02,55,4.40
2019,03,27,02,56,4.40
2019,03,27,02,57,4.40
2019,03,27,02,58,4.40
2019,03,27,02,59,4.40
2019,03,27,03,00,4.40
2019,03,27,03,01,4.40
2019,03,27,03,02,4.50
2019,03,27,03,03,4.50
2019,03,27,03,04,4.60
2019,03,27,03,05,4.60
2019,03,27,03,06,4.60
2019,03,27,03,07,4.60
2019,03,27,03,08,4.60
2019,03,27,03,09,4.60
2019,03,27,03,10,4.60
2019,03,27,03,11,4.50
2019,03,27,03,12,4.50
2019,03,27,03,13,4.50
2019,03,27,03,14,4.40
2019,03,27,03,15,4.40
2019,03,27,03,16,4.40
2019,03,27,03,17,4.30
2019,03,27,03,18,4.30
2019,03,27,03,19,4.30
2019,03,27,03,20,4.30
2019,03,27,03,21,4.30
2019,03,27,03,22,4.30
2019,03,27,03,23,4.30
2019,03,27,03,24,4.30
2019,03,27,03,25,4.30
2019,03,27,03,26,4.20
2019,03,27,03,27,4.20
2019,03,27,03,28,4.20
2019,03,27,03,29,4.20
2019,03,27,03,30,4.20
2019,03,27,03,31,4.20
2019,03,27,03,32,4.20
2019,03,27,03,33,4.20
2019,03,27,03,34,4.20
2019,03,27,03,35,4.20
2019,03,27,03,36,4.20
2019,03,27,03,37,4.20
2019,03,27,03,38,4.10
2019,03,27,03,39,4.10
2019,03,27,03,40,4.10
2019,03,27,03,41,4.10
2019,03,27,03,42,4.10
2019,03,27,03,43,4.20
2019,03,27,03,44,4.20
2019,03,27,03,45,4.20
2019,03,27,03,46,4.20
2019,03,27,03,47,4.20
2019,03,27,03,48,4.20
2019,03,27,03,49,4.20
2019,03,27,03,50,4.20
2019,03,27,03,51,4.20
2019,03,27,03,52,4.20
2019,03,27,03,53,4.20
2019,03,27,03,54,4.20
2019,03,27,03,55,4.20
2019,03,27,03,56,4.20
2019,03,27,03,57,4.20
2019,03,27,03,58,4.30
2019,03,27,03,59,4.30
2019,03,27,04,00,4.30
2019,03,27,04,01,4.30
2019,03,27,04,02,4.30
2019,03,27,04,03,4.20
2019,03,27,04,04,4.20
2019,03,27,04,05,4.20
2019,03,27,04,06,4.20
2019,03,27,04,07,4.20
2019,03,27,04,08,4.20
2019,03,27,04,09,4.30
2019,03,27,04,10,4.30
2019,03,27,04,11,4.30
2019,03,27,04,12,4.30
2019,03,27,04,13,4.30
2019,03,27,04,14,4.30
2019,03,27,04,15,4.20
2019,03,27,04,16,4.20
2019,03,27,04,17,4.20
2019,03,27,04,18,4.20
2019,03,27,04,19,4.20
2019,03,27,04,20,4.20
2019,03,27,04,21,4.20
2019,03,27,04,22,4.20
2019,03,27,04,23,4.10
2019,03,27,04,24,4.10
2019,03,27,04,25,4.10
2019,03,27,04,26,4.10
2019,03,27,04,27,4.10
2019,03,27,04,28,4.00
2019,03,27,04,29,4.00
2019,03,27,04,30,4.00
2019,03,27,04,31,4.00
2019,03,27,04,32,4.00
2019,03,27,04,33,4.00
2019,03,27,04,34,4.00
2019,03,27,04,35,4.00
2019,03,27,04,36,4.00
2019,03,27,04,37,4.00
2019,03,27,04,38,4.00
2019,03,27,04,39,4.00
2019,03,27,04,40,4.00
2019,03,27,04,41,3.90
2019,03,27,04,42,4.00
2019,03,27,04,43,3.90
2019,03,27,04,44,3.90
2019,03,27,04,45,3.90
2019,03,27,04,46,3.90
2019,03,27,04,47,3.90
2019,03,27,04,48,3.90
2019,03,27,04,49,3.90
2019,03,27,04,50,3.90
2019,03,27,04,51,3.90
2019,03,27,04,52,3.90
2019,03,27,04,53,3.90
2019,03,27,04,54,3.90
2019,03,27,04,55,3.90
2019,03,27,04,56,3.80
2019,03,27,04,57,3.80
2019,03,27,04,58,3.80
2019,03,27,04,59,3.80
2019,03,27,05,00,3.80
2019,03,27,05,01,3.80
2019,03,27,05,02,3.80
2019,03,27,05,03,3.90
2019,03,27,05,04,3.90
2019,03,27,05,05,3.80
2019,03,27,05,06,3.80
2019,03,27,05,07,3.80
2019,03,27,05,08,3.80
2019,03,27,05,09,3.80
2019,03,27,05,10,3.80
2019,03,27,05,11,3.80
2019,03,27,05,12,3.80
2019,03,27,05,13,3.80
2019,03,27,05,14,3.80
2019,03,27,05,15,3.80
2019,03,27,05,16,3.80
2019,03,27,05,17,3.80
2019,03,27,05,18,3.80
2019,03,27,05,19,3.80
2019,03,27,05,20,3.80
2019,03,27,05,21,3.80
2019,03,27,05,22,3.80
2019,03,27,05,23,3.80
2019,03,27,05,24,3.80
2019,03,27,05,25,3.80
2019,03,27,05,26,3.80
2019,03,27,05,27,3.70
2019,03,27,05,28,3.70
2019,03,27,05,29,3.70
2019,03,27,05,30,3.70
2019,03,27,05,31,3.70
2019,03,27,05,32,3.80
2019,03,27,05,33,3.80
2019,03,27,05,34,3.80
2019,03,27,05,35,3.80
2019,03,27,05,36,3.80
2019,03,27,05,37,3.80
2019,03,27,05,38,3.80
2019,03,27,05,39,3.70
2019,03,27,05,40,3.70
2019,03,27,05,41,3.70
2019,03,27,05,42,3.70
2019,03,27,05,43,3.70
2019,03,27,05,44,3.60
2019,03,27,05,45,3.60
2019,03,27,05,46,3.60
2019,03,27,05,47,3.60
2019,03,27,05,48,3.60
2019,03,27,05,49,3.50
2019,03,27,05,50,3.50
2019,03,27,05,51,3.40
2019,03,27,05,52,3.40
2019,03,27,05,53,3.40
2019,03,27,05,54,3.40
2019,03,27,05,55,3.30
2019,03,27,05,56,3.30
2019,03,27,05,57,3.30
2019,03,27,05,58,3.30
2019,03,27,05,59,3.20
2019,03,27,06,00,3.20
2019,03,27,06,01,3.20
2019,03,27,06,02,3.20
2019,03,27,06,03,3.20
2019,03,27,06,04,3.10
2019,03,27,06,05,3.10
2019,03,27,06,06,3.10
2019,03,27,06,07,3.10
2019,03,27,06,08,3.10
2019,03,27,06,09,3.00
2019,03,27,06,10,3.00
2019,03,27,06,11,2.90
2019,03,27,06,12,2.90
2019,03,27,06,13,2.90
2019,03,27,06,14,2.80
2019,03,27,06,15,2.80
2019,03,27,06,16,2.80
2019,03,27,06,17,2.80
2019,03,27,06,18,2.80
2019,03,27,06,19,2.80
2019,03,27,06,20,2.80
2019,03,27,06,21,2.80
2019,03,27,06,22,2.80
2019,03,27,06,23,2.80
2019,03,27,06,24,2.80
2019,03,27,06,25,2.80
2019,03,27,06,26,2.80
2019,03,27,06,27,2.80
2019,03,27,06,28,2.80
2019,03,27,06,29,2.80
2019,03,27,06,30,2.80
2019,03,27,06,31,2.80
2019,03,27,06,32,2.80
2019,03,27,06,33,2.80
2019,03,27,06,34,2.80
2019,03,27,06,35,2.80
2019,03,27,06,36,2.80
2019,03,27,06,37,2.80
2019,03,27,06,38,2.80
2019,03,27,06,39,2.80
2019,03,27,06,40,2.80
2019,03,27,06,41,2.80
2019,03,27,06,42,2.80
2019,03,27,06,43,2.80
2019,03,27,06,44,2.80
2019,03,27,06,45,2.80
2019,03,27,06,46,2.80
2019,03,27,06,47,2.80
2019,03,27,06,48,2.80
2019,03,27,06,49,2.80
2019,03,27,06,50,2.90
2019,03,27,06,51,2.90
2019,03,27,06,52,2.90
2019,03,27,06,53,2.90
2019,03,27,06,54,2.90
2019,03,27,06,55,2.90
2019,03,27,06,56,2.90
2019,03,27,06,57,2.90
2019,03,27,06,58,2.90
2019,03,27,06,59,2.90
2019,03,27,07,00,2.90
2019,03,27,07,01,2.90
2019,03,27,07,02,2.90
2019,03,27,07,03,2.90
2019,03,27,07,04,2.90
2019,03,27,07,05,3.00
2019,03,27,07,06,2.90
2019,03,27,07,07,3.00
2019,03,27,07,08,3.00
2019,03,27,07,09,3.00
2019,03,27,07,10,3.00
2019,03,27,07,11,2.90
2019,03,27,07,12,3.00
2019,03,27,07,13,2.90
2019,03,27,07,14,3.00
2019,03,27,07,15,3.00
2019,03,27,07,16,3.00
2019,03,27,07,17,3.00
2019,03,27,07,18,3.00
2019,03,27,07,19,3.00
2019,03,27,07,20,3.10
2019,03,27,07,21,3.10
2019,03,27,07,22,3.10
2019,03,27,07,23,3.10
2019,03,27,07,24,3.00
2019,03,27,07,25,2.90
2019,03,27,07,26,2.90
2019,03,27,07,27,2.90
2019,03,27,07,28,2.80
2019,03,27,07,29,2.80
2019,03,27,07,30,2.80
2019,03,27,07,31,2.90
2019,03,27,07,32,2.90
2019,03,27,07,33,2.90
2019,03,27,07,34,2.90
2019,03,27,07,35,2.90
2019,03,27,07,36,3.00
2019,03,27,07,37,3.10
2019,03,27,07,38,3.10
2019,03,27,07,39,3.10
2019,03,27,07,40,3.10
2019,03,27,07,41,3.20
2019,03,27,07,42,3.20
2019,03,27,07,43,3.20
2019,03,27,07,44,3.20
2019,03,27,07,45,3.20
2019,03,27,07,46,3.20
2019,03,27,07,47,3.20
2019,03,27,07,48,3.20
2019,03,27,07,49,3.20
2019,03,27,07,50,3.20
2019,03,27,07,51,3.20
2019,03,27,07,52,3.20
2019,03,27,07,53,3.20
2019,03,27,07,54,3.10
2019,03,27,07,55,3.10
2019,03,27,07,56,3.10
2019,03,27,07,57,3.10
2019,03,27,07,58,3.10
2019,03,27,07,59,3.00
2019,03,27,08,00,3.00
2019,03,27,08,01,2.90
2019,03,27,08,02,2.90
2019,03,27,08,03,2.90
2019,03,27,08,04,2.90
2019,03,27,08,05,2.80
2019,03,27,08,06,2.90
2019,03,27,08,07,2.80
2019,03,27,08,08,2.80
2019,03,27,08,09,2.80
2019,03,27,08,10,2.90
2019,03,27,08,11,2.90
2019,03,27,08,12,2.90
2019,03,27,08,13,2.90
2019,03,27,08,14,2.90
2019,03,27,08,15,3.00
2019,03,27,08,16,3.00
2019,03,27,08,17,3.00
2019,03,27,08,18,3.10
2019,03,27,08,19,3.10
2019,03,27,08,20,3.10
2019,03,27,08,21,3.10
2019,03,27,08,22,3.10
2019,03,27,08,23,3.20
2019,03,27,08,24,3.20
2019,03,27,08,25,3.20
2019,03,27,08,26,3.20
2019,03,27,08,27,3.20
2019,03,27,08,28,3.30
2019,03,27,08,29,3.30
2019,03,27,08,30,3.30
2019,03,27,08,31,3.30
2019,03,27,08,32,3.30
2019,03,27,08,33,3.40
2019,03,27,08,34,3.40
2019,03,27,08,35,3.50
2019,03,27,08,36,3.60
2019,03,27,08,37,3.70
2019,03,27,08,38,3.80
2019,03,27,08,39,3.80
2019,03,27,08,40,3.80
2019,03,27,08,41,3.90
2019,03,27,08,42,3.90
2019,03,27,08,43,4.00
2019,03,27,08,44,4.00
2019,03,27,08,45,4.10
2019,03,27,08,46,4.10
2019,03,27,08,47,4.10
2019,03,27,08,48,4.20
2019,03,27,08,49,4.20
2019,03,27,08,50,4.20
2019,03,27,08,51,4.20
2019,03,27,08,52,4.30
2019,03,27,08,53,4.30
2019,03,27,08,54,4.40
2019,03,27,08,55,4.40
2019,03,27,08,56,4.50
2019,03,27,08,57,4.50
2019,03,27,08,58,4.50
2019,03,27,08,59,4.60
2019,03,27,09,00,4.60
2019,03,27,09,01,4.60
2019,03,27,09,02,4.70
2019,03,27,09,03,4.70
2019,03,27,09,04,4.70
2019,03,27,09,05,4.80
2019,03,27,09,06,4.80
2019,03,27,09,07,4.90
2019,03,27,09,08,5.00
2019,03,27,09,09,5.00
2019,03,27,09,10,5.10
2019,03,27,09,11,5.10
2019,03,27,09,12,5.10
2019,03,27,09,13,5.10
2019,03,27,09,14,5.20
2019,03,27,09,15,5.20
2019,03,27,09,16,5.20
2019,03,27,09,17,5.30
2019,03,27,09,18,5.40
2019,03,27,09,19,5.40
2019,03,27,09,20,5.40
2019,03,27,09,21,5.50
2019,03,27,09,22,5.50
2019,03,27,09,23,5.50
2019,03,27,09,24,5.60
2019,03,27,09,25,5.60
2019,03,27,09,26,5.60
2019,03,27,09,27,5.60
2019,03,27,09,28,5.60
2019,03,27,09,29,5.60
2019,03,27,09,30,5.60
2019,03,27,09,31,5.70
2019,03,27,09,32,5.70
2019,03,27,09,33,5.70
2019,03,27,09,34,5.70
2019,03,27,09,35,5.70
2019,03,27,09,36,5.70
2019,03,27,09,37,5.70
2019,03,27,09,38,5.70
2019,03,27,09,39,5.70
2019,03,27,09,40,5.70
2019,03,27,09,41,5.70
2019,03,27,09,42,5.80
2019,03,27,09,43,5.80
2019,03,27,09,44,5.80
2019,03,27,09,45,5.80
2019,03,27,09,46,5.80
2019,03,27,09,47,5.90
2019,03,27,09,48,5.90
2019,03,27,09,49,5.90
2019,03,27,09,50,5.90
2019,03,27,09,51,6.00
2019,03,27,09,52,6.00
2019,03,27,09,53,6.10
2019,03,27,09,54,6.10
2019,03,27,09,55,6.10
2019,03,27,09,56,6.20
2019,03,27,09,57,6.20
2019,03,27,09,58,6.30
2019,03,27,09,59,6.20
2019,03,27,10,00,6.20
2019,03,27,10,01,6.20
2019,03,27,10,02,6.20
2019,03,27,10,03,6.30
2019,03,27,10,04,6.30
2019,03,27,10,05,6.40
2019,03,27,10,06,6.50
2019,03,27,10,07,6.60
2019,03,27,10,08,6.60
2019,03,27,10,09,6.70
2019,03,27,10,10,6.70
2019,03,27,10,11,6.80
2019,03,27,10,12,6.80
2019,03,27,10,13,6.70
2019,03,27,10,14,6.70
2019,03,27,10,15,6.80
2019,03,27,10,16,6.80
2019,03,27,10,17,6.90
2019,03,27,10,18,7.00
2019,03,27,10,19,7.10
2019,03,27,10,20,7.20
2019,03,27,10,21,7.20
2019,03,27,10,22,7.30
2019,03,27,10,23,7.30
2019,03,27,10,24,7.30
2019,03,27,10,25,7.30
2019,03,27,10,26,7.30
2019,03,27,10,27,7.30
2019,03,27,10,28,7.30
2019,03,27,10,29,7.30
2019,03,27,10,30,7.40
2019,03,27,10,31,7.40
2019,03,27,10,32,7.50
2019,03,27,10,33,7.60
2019,03,27,10,34,7.60
2019,03,27,10,35,7.70
2019,03,27,10,36,7.70
2019,03,27,10,37,7.70
2019,03,27,10,38,7.80
2019,03,27,10,39,7.90
2019,03,27,10,40,8.00
2019,03,27,10,41,8.00
2019,03,27,10,42,8.10
2019,03,27,10,43,8.20
2019,03,27,10,44,8.30
2019,03,27,10,45,8.30
2019,03,27,10,46,8.30
2019,03,27,10,47,8.30
2019,03,27,10,48,8.30
2019,03,27,10,49,8.30
2019,03,27,10,50,8.30
2019,03,27,10,51,8.40
2019,03,27,10,52,8.50
2019,03,27,10,53,8.50
2019,03,27,10,54,8.60
2019,03,27,10,55,8.60
2019,03,27,10,56,8.70
2019,03,27,10,57,8.70
2019,03,27,10,58,8.70
2019,03,27,10,59,8.70
2019,03,27,11,00,8.70
2019,03,27,11,01,8.70
2019,03,27,11,02,8.70
2019,03,27,11,03,8.70
2019,03,27,11,04,8.70
2019,03,27,11,05,8.70
2019,03,27,11,06,8.70
2019,03,27,11,07,8.80
2019,03,27,11,08,8.80
2019,03,27,11,09,8.80
2019,03,27,11,10,8.90
2019,03,27,11,11,8.90
2019,03,27,11,12,8.90
2019,03,27,11,13,8.90
2019,03,27,11,14,8.90
2019,03,27,11,15,9.00
2019,03,27,11,16,9.00
2019,03,27,11,17,9.10
2019,03,27,11,18,9.20
2019,03,27,11,19,9.30
2019,03,27,11,20,9.30
2019,03,27,11,21,9.40
2019,03,27,11,22,9.50
2019,03,27,11,23,9.50
2019,03,27,11,24,9.60
2019,03,27,11,25,9.60
2019,03,27,11,26,9.60
2019,03,27,11,27,9.70
2019,03,27,11,28,9.70
2019,03,27,11,29,9.70
2019,03,27,11,30,9.70
2019,03,27,11,31,9.70
2019,03,27,11,32,9.70
2019,03,27,11,33,9.70
2019,03,27,11,34,9.70
2019,03,27,11,35,9.70
2019,03,27,11,36,9.70
2019,03,27,11,37,9.80
2019,03,27,11,38,9.80
2019,03,27,11,39,9.90
2019,03,27,11,40,10.00
2019,03,27,11,41,10.00
2019,03,27,11,42,10.10
2019,03,27,11,43,10.10
2019,03,27,11,44,10.20
2019,03,27,11,45,10.30
2019,03,27,11,46,10.40
2019,03,27,11,47,10.50
2019,03,27,11,48,10.50
2019,03,27,11,49,10.60
2019,03,27,11,50,10.60
2019,03,27,11,51,10.60
2019,03,27,11,52,10.60
2019,03,27,11,53,10.60
2019,03,27,11,54,10.60
2019,03,27,11,55,10.60
2019,03,27,11,56,10.60
2019,03,27,11,57,10.70
2019,03,27,11,58,10.80
2019,03,27,11,59,10.90
2019,03,27,12,00,11.00
2019,03,27,12,01,11.00
2019,03,27,12,02,11.00
2019,03,27,12,03,10.90
2019,03,27,12,04,10.90
2019,03,27,12,05,10.80
2019,03,27,12,06,10.80
2019,03,27,12,07,10.80
2019,03,27,12,08,10.80
2019,03,27,12,09,10.90
2019,03,27,12,10,10.90
2019,03,27,12,11,10.80
2019,03,27,12,12,10.80
2019,03,27,12,13,10.80
2019,03,27,12,14,10.80
2019,03,27,12,15,10.90
2019,03,27,12,16,10.90
2019,03,27,12,17,11.00
2019,03,27,12,18,11.00
2019,03,27,12,19,11.10
2019,03,27,12,20,11.00
2019,03,27,12,21,11.00
2019,03,27,12,22,11.00
2019,03,27,12,23,11.10
2019,03,27,12,24,11.10
2019,03,27,12,25,11.10
2019,03,27,12,26,11.10
2019,03,27,12,27,11.10
2019,03,27,12,28,11.10
2019,03,27,12,29,11.00
2019,03,27,12,30,11.00
2019,03,27,12,31,11.00
2019,03,27,12,32,11.00
2019,03,27,12,33,11.10
2019,03,27,12,34,11.20
2019,03,27,12,35,11.30
2019,03,27,12,36,11.40
2019,03,27,12,37,11.50
2019,03,27,12,38,11.60
2019,03,27,12,39,11.60
2019,03,27,12,40,11.60
2019,03,27,12,41,11.60
2019,03,27,12,42,11.70
2019,03,27,12,43,11.70
2019,03,27,12,44,11.70
2019,03,27,12,45,11.80
2019,03,27,12,46,11.90
2019,03,27,12,47,11.90
2019,03,27,12,48,11.90
2019,03,27,12,49,11.80
2019,03,27,12,50,11.80
2019,03,27,12,51,11.70
2019,03,27,12,52,11.70
2019,03,27,12,53,11.70
2019,03,27,12,54,11.70
2019,03,27,12,55,11.80
2019,03,27,12,56,11.90
2019,03,27,12,57,12.00
2019,03,27,12,58,12.10
2019,03,27,12,59,12.20
2019,03,27,13,00,12.10
2019,03,27,13,01,12.10
2019,03,27,13,02,12.10
2019,03,27,13,03,12.10
2019,03,27,13,04,12.10
2019,03,27,13,05,12.10
2019,03,27,13,06,12.20
2019,03,27,13,07,12.20
2019,03,27,13,08,12.30
2019,03,27,13,09,12.20
2019,03,27,13,10,12.20
2019,03,27,13,11,12.20
2019,03,27,13,12,12.20
2019,03,27,13,13,12.20
2019,03,27,13,14,12.30
2019,03,27,13,15,12.30
2019,03,27,13,16,12.30
2019,03,27,13,17,12.40
2019,03,27,13,18,12.40
2019,03,27,13,19,12.40
2019,03,27,13,20,12.40
2019,03,27,13,21,12.50
2019,03,27,13,22,12.60
2019,03,27,13,23,12.60
2019,03,27,13,24,12.50
2019,03,27,13,25,12.40
2019,03,27,13,26,12.40
2019,03,27,13,27,12.40
2019,03,27,13,28,12.40
2019,03,27,13,29,12.40
2019,03,27,13,30,12.40
2019,03,27,13,31,12.50
2019,03,27,13,32,12.60
2019,03,27,13,33,12.70
2019,03,27,13,34,12.80
2019,03,27,13,35,12.90
2019,03,27,13,36,12.90
2019,03,27,13,37,13.00
2019,03,27,13,38,13.10
2019,03,27,13,39,13.20
2019,03,27,13,40,13.20
2019,03,27,13,41,13.20
2019,03,27,13,42,13.20
2019,03,27,13,43,13.20
2019,03,27,13,44,13.30
2019,03,27,13,45,13.30
2019,03,27,13,46,13.40
2019,03,27,13,47,13.50
2019,03,27,13,48,13.60
2019,03,27,13,49,13.60
2019,03,27,13,50,13.60
2019,03,27,13,51,13.50
2019,03,27,13,52,13.50
2019,03,27,13,53,13.40
2019,03,27,13,54,13.40
2019,03,27,13,55,13.40
2019,03,27,13,56,13.40
2019,03,27,13,57,13.50
2019,03,27,13,58,13.50
2019,03,27,13,59,13.60
2019,03,27,14,00,13.60
2019,03,27,14,01,13.70
2019,03,27,14,02,13.70
2019,03,27,14,03,13.70
2019,03,27,14,04,13.70
2019,03,27,14,05,13.80
2019,03,27,14,06,13.80
2019,03,27,14,07,13.80
2019,03,27,14,08,13.80
2019,03,27,14,09,13.80
2019,03,27,14,10,13.80
2019,03,27,14,11,13.80
2019,03,27,14,12,13.90
2019,03,27,14,13,13.80
2019,03,27,14,14,13.90
2019,03,27,14,15,13.90
2019,03,27,14,16,14.00
2019,03,27,14,17,14.10
2019,03,27,14,18,14.10
2019,03,27,14,19,14.10
2019,03,27,14,20,14.20
2019,03,27,14,21,14.20
2019,03,27,14,22,14.20
2019,03,27,14,23,14.20
2019,03,27,14,24,14.30
2019,03,27,14,25,14.30
2019,03,27,14,26,14.30
2019,03,27,14,27,14.30
2019,03,27,14,28,14.30
2019,03,27,14,29,14.30
2019,03,27,14,30,14.30
2019,03,27,14,31,14.30
2019,03,27,14,32,14.40
2019,03,27,14,33,14.50
2019,03,27,14,34,14.60
2019,03,27,14,35,14.60
2019,03,27,14,36,14.70
2019,03,27,14,37,14.80
2019,03,27,14,38,14.80
2019,03,27,14,39,14.90
2019,03,27,14,40,15.00
2019,03,27,14,41,15.00
2019,03,27,14,42,15.10
2019,03,27,14,43,15.20
2019,03,27,14,44,15.20
2019,03,27,14,45,15.20
2019,03,27,14,46,15.20
2019,03,27,14,47,15.20
2019,03,27,14,48,15.20
2019,03,27,14,49,15.10
2019,03,27,14,50,15.10
2019,03,27,14,51,15.10
2019,03,27,14,52,15.10
2019,03,27,14,53,15.10
2019,03,27,14,54,15.20
2019,03,27,14,55,15.20
2019,03,27,14,56,15.20
2019,03,27,14,57,15.20
2019,03,27,14,58,15.20
2019,03,27,14,59,15.20
2019,03,27,15,00,15.20
2019,03,27,15,01,15.20
2019,03,27,15,02,15.30
2019,03,27,15,03,15.30
2019,03,27,15,04,15.30
2019,03,27,15,05,15.40
2019,03,27,15,06,15.50
2019,03,27,15,07,15.50
2019,03,27,15,08,15.60
2019,03,27,15,09,15.60
2019,03,27,15,10,15.60
2019,03,27,15,11,15.60
2019,03,27,15,12,15.70
2019,03,27,15,13,15.70
2019,03,27,15,14,15.70
2019,03,27,15,15,15.70
2019,03,27,15,16,15.80
2019,03,27,15,17,15.90
2019,03,27,15,18,16.00
2019,03,27,15,19,15.90
2019,03,27,15,20,15.90
2019,03,27,15,21,15.90
2019,03,27,15,22,16.00
2019,03,27,15,23,16.00
2019,03,27,15,24,16.00
2019,03,27,15,25,16.00
2019,03,27,15,26,15.90
2019,03,27,15,27,15.90
2019,03,27,15,28,15.90
2019,03,27,15,29,15.80
2019,03,27,15,30,15.80
2019,03,27,15,31,15.80
2019,03,27,15,32,15.80
2019,03,27,15,33,15.80
2019,03,27,15,34,15.80
2019,03,27,15,35,15.90
2019,03,27,15,36,15.90
2019,03,27,15,37,16.00
2019,03,27,15,38,16.10
2019,03,27,15,39,16.20
2019,03,27,15,40,16.30
2019,03,27,15,41,16.40
2019,03,27,15,42,16.40
2019,03,27,15,43,16.40
2019,03,27,15,44,16.40
2019,03,27,15,45,16.40
2019,03,27,15,46,16.40
2019,03,27,15,47,16.40
2019,03,27,15,48,16.40
2019,03,27,15,49,16.50
2019,03,27,15,50,16.50
2019,03,27,15,51,16.50
2019,03,27,15,52,16.60
2019,03,27,15,53,16.50
2019,03,27,15,54,16.40
2019,03,27,15,55,16.40
2019,03,27,15,56,16.30
2019,03,27,15,57,16.20
2019,03,27,15,58,16.20
2019,03,27,15,59,16.20
2019,03,27,16,00,16.30
2019,03,27,16,01,16.30
2019,03,27,16,02,16.40
2019,03,27,16,03,16.50
2019,03,27,16,04,16.60
2019,03,27,16,05,16.70
2019,03,27,16,06,16.70
2019,03,27,16,07,16.70
2019,03,27,16,08,16.70
2019,03,27,16,09,16.70
2019,03,27,16,10,16.70
2019,03,27,16,11,16.70
2019,03,27,16,12,16.70
2019,03,27,16,13,16.70
2019,03,27,16,14,16.80
2019,03,27,16,15,16.90
2019,03,27,16,16,17.00
2019,03,27,16,17,17.10
2019,03,27,16,18,17.10
2019,03,27,16,19,17.10
2019,03,27,16,20,17.10
2019,03,27,16,21,17.40
2019,03,27,16,22,17.40
2019,03,27,16,23,17.50
2019,03,27,16,24,17.50
2019,03,27,16,25,17.40
2019,03,27,16,26,17.40
2019,03,27,16,27,17.30
2019,03,27,16,28,17.20
2019,03,27,16,29,17.20
2019,03,27,16,30,17.20
2019,03,27,16,31,17.20
2019,03,27,16,32,17.10
2019,03,27,16,33,17.10
2019,03,27,16,34,17.00
2019,03,27,16,35,17.00
2019,03,27,16,36,16.90
2019,03,27,16,37,16.90
2019,03,27,16,38,16.90
2019,03,27,16,39,16.90
2019,03,27,16,40,16.80
2019,03,27,16,41,16.80
2019,03,27,16,42,16.80
2019,03,27,16,43,16.80
2019,03,27,16,44,16.90
2019,03,27,16,45,16.90
2019,03,27,16,46,16.80
2019,03,27,16,47,16.90
2019,03,27,16,48,16.80
2019,03,27,16,49,16.80
2019,03,27,16,50,16.80
2019,03,27,16,51,16.80
2019,03,27,16,52,16.80
2019,03,27,16,53,16.90
2019,03,27,16,54,16.90
2019,03,27,16,55,17.00
2019,03,27,16,56,17.10
2019,03,27,16,57,17.20
2019,03,27,16,58,17.30
2019,03,27,16,59,17.30
2019,03,27,17,00,17.30
2019,03,27,17,01,17.30
2019,03,27,17,02,17.30
2019,03,27,17,03,17.30
2019,03,27,17,04,17.40
2019,03,27,17,05,17.40
2019,03,27,17,06,17.40
2019,03,27,17,07,17.50
2019,03,27,17,08,17.50
2019,03,27,17,09,17.50
2019,03,27,17,10,17.50
2019,03,27,17,11,17.60
2019,03,27,17,12,17.60
2019,03,27,17,13,17.70
2019,03,27,17,14,17.70
2019,03,27,17,15,17.60
2019,03,27,17,16,17.60
2019,03,27,17,17,17.50
2019,03,27,17,18,17.50
2019,03,27,17,19,17.40
2019,03,27,17,20,17.40
2019,03,27,17,21,17.40
2019,03,27,17,22,17.30
2019,03,27,17,23,17.30
2019,03,27,17,24,17.30
2019,03,27,17,25,17.20
2019,03,27,17,26,17.20
2019,03,27,17,27,17.20
2019,03,27,17,28,17.20
2019,03,27,17,29,17.20
2019,03,27,17,30,17.30
2019,03,27,17,31,17.30
2019,03,27,17,32,17.30
2019,03,27,17,33,17.30
2019,03,27,17,34,17.30
2019,03,27,17,35,17.30
2019,03,27,17,36,17.30
2019,03,27,17,37,17.30
2019,03,27,17,38,17.30
2019,03,27,17,39,17.30
2019,03,27,17,40,17.30
2019,03,27,17,41,17.30
2019,03,27,17,42,17.30
2019,03,27,17,43,17.30
2019,03,27,17,44,17.40
2019,03,27,17,45,17.40
2019,03,27,17,46,17.40
2019,03,27,17,47,17.30
2019,03,27,17,48,17.30
2019,03,27,17,49,17.30